STARLINK-1907 (47177 NORAD) Tracking and Keplerian Element Data

This shows tracking and keplerian element data for the satellite.

Feedback or suggestion? Click here.




ElementValue
Catalog47177
NameSTARLINK-1907
Epoch Orbit973
Epoch Day21.16668981
Epoch Year2021
RAAN72.9046
Inclination53.0548
Eccentricity0.0001491
Argument of Perigee47.0948
Mean Anonmoly13.3469
Mean Motion15.62748956
Decay Rate-2.93E-06
L11 47177U 20088BH 21021.16668981 -.00000293 00000-0 26343-5 0 9993
L22 47177 53.0548 72.9046 0001491 47.0948 13.3469 15.62748956 9736

Live tracking and technical data element details for STARLINK-1907 (NORAD 47177). STARLINK-1907 can be tracked NOW for your location showing map with azimuth and elevation plus other details from your city location.

Track the satellite on the map from your city or location and see movement details for azimuth, elevation, latitude, longitude, range, height, and movement on the map or in text.







IsCatalogInMostPopularTable: catalog: 47177, numindb: 25
Update: records affected: 1



GetName: 47177 STARLINK-1907

Hit Count: updated at: Fri, 22 Jan 2021 16:19:32 GMT